GFSMA_con_lsi_009.txt.gz
Lid_Strength_Index
2 2 1 1 1 1 1 2 2 2 2 1 2 2 1 0 0 1 0 -1 -1 -1 -1 -1 -1 -1 -2 -2 -1 -1 -1 -1 -1 -1 -1 -1 -1 -0 -0 -1 -1 -1 -2
2 2 2 1 2 2 2 2 2 2 2 2 2 2 2 0 0 1 0 0 -1 -1 -1 -1 -1 -1 -1 -1 -1 -1 -1 -1 -1 -1 -1 -1 -1 0 0 -0 -1 -1 -2
2 2 3 3 2 2 2 2 2 2 2 2 2 1 1 1 0 0 0 0 0 -1 -1 -1 -1 -1 -1 -2 -2 -1 -1 -0 -1 -1 -1 -1 -0 1 0 -0 -1 -1 -1
2 2 3 3 2 2 2 2 2 2 2 2 2 2 2 1 0 0 0 0 1 0 -1 -1 -1 -1 -1 -2 -2 -1 -0 -1 -1 -1 -1 -0 0 1 -0 -1 -0 -1 -1
1 2 3 3 2 3 3 2 3 3 3 3 2 2 2 2 1 0 1 1 1 0 0 -1 -1 -1 -1 -1 -1 -1 -1 -1 -1 -1 -1 -0 0 0 -1 -1 0 -0 0
1 3 3 3 2 3 3 3 3 2 3 3 2 2 3 3 2 2 1 0 -0 -0 0 0 -0 -1 -1 -1 -1 -1 -1 -1 -1 -1 -0 -0 -0 -0 -0 -0 -0 -1 0
2 2 2 2 2 3 3 2 2 3 3 3 3 4 2 2 1 1 0 1 1 0 0 0 0 0 0 -1 -1 -1 -2 -2 -1 -0 -0 0 -0 -1 -1 -1 -1 -0 0
2 2 2 2 3 3 3 3 3 3 3 3 4 4 6 4 2 1 1 1 1 1 0 0 1 1 0 -0 -0 -1 -1 -1 -1 -0 -0 -0 -1 -1 -1 -1 -1 -0 0
1 1 2 2 3 3 3 3 3 3 4 3 3 4 6 7 4 2 2 1 1 1 1 1 1 1 0 0 -0 -0 -1 -1 -1 -1 -1 -1 -2 -1 -1 -1 -0 0 0
1 1 2 2 2 3 3 3 2 3 3 4 3 2 3 4 6 6 3 2 1 1 1 1 1 1 0 0 -1 -1 -0 -1 -0 -1 -1 -2 -2 -2 -1 -1 -0 -0 0
1 1 2 2 3 3 3 2 3 3 3 3 3 3 3 3 3 4 6 4 2 1 1 1 0 0 0 0 0 -0 -0 -0 -0 -1 -1 -2 -1 -1 -1 -0 -0 0 0
2 2 2 2 3 3 2 3 3 3 3 3 2 2 3 4 4 4 5 4 4 2 1 1 1 1 -0 0 -0 -0 1 0 0 -0 -1 -1 -1 -1 -1 -0 0 0 1
4 3 3 3 3 3 3 2 3 3 3 3 2 2 2 2 2 3 3 4 5 3 2 1 0 0 0 0 -0 -0 0 1 1 1 1 -0 -1 -1 -1 -0 -0 0 0
4 3 2 2 2 2 2 2 2 3 2 3 3 2 2 2 1 2 3 4 5 4 3 3 1 1 1 1 -0 -0 1 2 2 2 2 1 1 0 -0 -0 -0 -1 -1
3 3 2 2 2 2 2 2 3 2 1 2 2 2 1 1 1 1 1 2 4 6 5 3 3 1 1 0 -0 1 1 2 2 3 2 2 2 2 1 1 0 -1 -1
3 3 2 2 2 2 2 2 2 1 2 1 2 2 1 2 1 1 2 2 2 3 5 3 2 1 1 1 -0 1 2 2 2 2 2 3 3 2 1 1 0 -0 -1
3 3 3 3 3 3 2 3 2 2 1 2 1 2 2 2 2 1 1 2 2 2 4 3 2 1 1 1 1 2 2 2 2 3 2 2 3 2 1 1 1 1 0
3 2 2 2 2 2 2 2 2 2 2 2 2 1 2 1 2 1 2 2 2 2 3 4 2 2 2 2 2 2 1 1 1 2 3 2 2 2 3 2 2 2 2
3 2 2 2 2 2 2 2 2 2 2 1 1 2 2 2 2 2 2 2 2 2 2 3 3 2 2 2 2 2 2 2 2 1 2 2 1 2 2 2 3 4 4
2 2 2 2 2 2 2 2 2 1 1 2 1 1 1 2 2 2 1 2 2 2 2 2 2 4 3 3 2 3 4 4 3 2 2 3 3 2 3 4 4 3 5
2 2 2 2 2 1 1 2 2 2 2 1 1 1 1 2 2 3 1 1 2 2 2 3 4 4 4 5 4 5 4 5 3 3 4 4 5 6 6 5 4 4 5
3 2 2 2 2 1 8 5 2 1 1 1 2 1 2 3 3 4 4 4 2 2 3 4 5 5 5 5 6 6 4 4 4 4 5 5 6 5 4 5 5 6 6
4 3 3 3 3 4 8 7 4 1 1 2 2 1 1 1 2 1 5 5 5 6 5 3 5 5 5 5 5 4 4 5 5 4 5 5 4 4 4 6 6 6 6
5 5 4 4 3 4 9 8 5 1 1 2 1 1 2 2 2 2 2 2 3 3 4 3 3 3 3 3 3 3 3 4 4 6 4 4 6 6 6 7 6 6 7
5 5 5 4 4 4 9 9 4 1 2 2 2 2 1 2 7 7 3 4 6 6 9 9 8 10 10 7 5 3 4 5 7 6 6 6 7 7 7 6 6 6 7
5 5 6 5 6 5 10 9 4 2 4 3 3 4 6 3 10 10 4 5 7 8 8 9 10 10 9 9 7 5 5 6 8 7 6 7 7 7 8 7 8 8 8

GFSMA_con_lsi_015.txt.gz
Lid_Strength_Index
-0 -1 -1 -1 -1 -1 -1 -1 -1 -1 -1 -1 -1 -1 -1 -1 -1 -1 -1 -1 -1 -1 -1 -1 -1 -1 -1 -1 -1 -1 -1 -1 -0 -1 -2 -1 -1 -2 -1 -1 -1 -0 0
-1 -0 -0 -0 -1 -1 -1 -1 -1 -0 -0 -1 -0 -1 -1 -1 -1 -1 -1 -2 -1 -1 -1 -1 -1 -1 -1 -1 -1 -1 -1 -1 -0 -1 -1 -2 -1 -2 -1 -1 -0 0 0
-1 -1 -0 -0 -0 -1 -1 -1 -1 -1 -0 -0 -0 -0 -1 -1 -1 -1 -1 -1 -1 -1 -1 -1 -1 -1 -1 -1 -1 -1 -1 -1 -2 -2 -1 -1 -1 -1 -1 0 0 1 1
-1 -1 -0 -0 -1 -1 -1 -0 -0 0 0 0 0 -0 -0 -1 -1 -1 -1 -1 -1 -1 -1 -1 -1 -1 -1 -1 -2 -1 -1 -1 -2 -2 -1 -1 -1 -1 -0 0 1 1 1
-1 -1 -0 -0 -1 -0 -0 -0 0 0 1 1 0 0 -0 -0 -1 -1 -1 -1 -2 -2 -1 -1 -1 -1 -1 -1 -1 -1 -1 -1 -1 -2 -0 -1 -1 -1 -0 -0 1 1 1
-1 -1 -0 -0 -1 -0 0 0 0 0 0 0 1 1 0 -0 -1 -0 -1 -1 -1 -1 -1 -1 -1 -1 -1 -2 -1 -2 -2 -1 -1 -1 -1 -1 -1 -1 -0 0 1 1 0
-1 -1 -0 -0 -0 0 0 -0 0 1 1 0 1 1 1 0 -0 -1 -1 -1 -1 -1 -1 -1 -1 -1 -1 -1 -1 -1 -2 -2 -1 -1 -0 -0 -1 -1 0 0 1 0 0
-1 -1 -0 -0 -0 0 0 0 0 1 1 0 2 2 4 2 1 0 -1 -0 -0 -1 -0 -1 -1 -1 -1 -1 -1 -1 -2 -1 -1 -1 -0 -0 -0 0 0 0 -0 -0 -0
-1 -1 -1 -0 -0 -0 0 0 0 1 2 1 0 2 5 5 3 1 1 1 0 0 -0 -0 -1 -0 -0 -0 -1 -1 -1 -1 -2 -1 -0 -0 1 -0 -0 0 -0 -0 -0
-1 -1 -1 -0 -0 -0 0 0 0 0 1 2 1 1 0 1 4 5 1 1 1 1 0 0 0 0 -1 -1 -1 -1 0 -1 -0 -0 0 0 0 -0 -0 -0 -1 -1 -0
-1 -1 -1 -1 -0 -0 -0 -0 0 0 1 1 1 2 1 1 1 4 6 4 2 1 1 0 0 0 0 -0 0 0 0 1 0 0 0 -1 -1 -1 -1 -1 -1 -1 -0
-0 -1 -0 -1 -0 -0 -0 -0 -0 -0 0 0 0 1 1 2 3 3 4 4 4 2 1 0 0 -0 0 1 0 1 1 1 2 1 0 -1 -1 -2 -1 -1 -1 -1 -0
1 0 -0 -0 -1 -0 -0 -0 -0 0 0 1 1 1 0 1 1 2 3 4 4 3 2 1 0 0 0 1 1 1 1 2 2 2 2 1 -1 -1 -1 -1 -1 -0 -0
0 -0 -0 -1 -1 -1 -0 -0 0 0 -0 0 1 1 0 0 0 1 2 4 5 4 3 3 1 1 0 0 1 1 1 2 2 3 3 1 0 0 -0 -0 -0 -0 -0
0 -0 -0 -0 -0 -1 -0 -0 0 0 0 0 1 1 1 0 0 1 1 2 3 6 5 3 3 1 1 0 0 0 0 2 2 3 2 2 2 1 1 1 1 1 0
-0 -0 0 -0 -0 -0 -0 0 0 0 1 1 1 1 1 1 1 0 1 1 2 3 5 2 2 1 1 0 0 0 1 1 3 3 2 2 2 2 2 2 2 0 -1
-0 0 0 0 0 0 0 0 1 1 1 1 1 1 1 1 1 1 1 1 2 2 4 3 1 1 1 1 1 1 0 1 1 3 2 3 3 3 2 2 1 0 -0
-0 0 0 0 0 0 0 1 1 1 1 2 1 1 2 1 1 1 1 2 2 1 3 4 2 2 2 1 1 1 1 0 0 2 3 3 4 2 3 2 2 2 2
0 0 0 0 0 1 1 0 1 1 1 1 1 1 1 1 2 1 1 2 1 1 1 2 3 1 2 2 2 1 1 1 0 2 3 4 3 2 2 2 3 3 4
0 0 0 0 0 0 1 1 1 1 1 1 1 1 1 1 1 1 1 1 1 2 2 2 2 2 2 2 2 3 2 1 2 1 4 3 2 3 3 4 4 5 6
0 0 0 0 0 0 0 0 0 1 1 1 1 1 0 1 2 2 1 1 1 2 2 3 3 3 3 3 3 2 2 2 1 0 -0 -0 1 2 3 4 4 5 6
0 0 0 0 1 0 7 4 1 1 1 1 1 1 1 2 3 5 5 4 2 2 2 3 3 3 3 3 3 2 2 2 3 -1 2 3 2 2 3 3 6 7 7
0 1 1 0 1 0 9 7 4 0 1 1 1 1 1 1 1 -0 6 6 6 6 4 2 3 3 3 2 1 1 1 1 2 1 2 3 2 3 3 5 7 7 7
1 1 1 1 1 0 9 8 6 0 1 1 1 1 1 0 0 0 1 1 1 1 0 0 0 0 -0 -0 -0 -0 0 0 0 0 0 3 2 3 4 4 7 7 8
1 1 1 1 1 1 10 9 3 1 1 1 1 0 0 1 8 6 1 1 1 1 7 9 8 8 8 7 2 -0 1 2 2 1 -1 1 2 3 3 4 5 8 9
1 1 1 0 3 1 10 9 3 1 2 2 1 1 5 3 10 7 0 1 2 1 1 0 -0 2 3 4 5 -1 0 2 2 2 0 2 2 3 3 3 5 5 6

GFSMA_con_lsi_021.txt.gz
Lid_Strength_Index
-1 -1 -1 -1 -1 -1 -1 -1 -1 -0 -0 -0 -0 -0 -0 -1 -1 -1 -1 -1 -1 -1 -1 -1 -1 -1 -1 -1 -1 -1 -1 -1 -1 -1 -1 -2 -1 -2 -2 -1 -1 -1 -1
-1 -0 -0 -0 -0 -1 -1 -1 -0 -0 -0 -0 0 -0 -1 -1 -0 -1 -1 -1 -1 -1 -1 -1 -1 -1 -1 -1 -1 -1 -1 -1 -1 -1 -1 -2 -2 -2 -2 -2 -1 -1 -0
-1 -1 -0 -0 -1 -2 -1 -0 -1 -0 -0 -0 0 -0 -0 -0 -0 -1 -1 -1 -1 -2 -2 -1 -1 -1 -1 -1 -1 -1 -1 -1 -1 -1 -1 -1 -1 -2 -2 -1 -1 -0 0
-1 -1 -0 -0 -1 -1 -1 -0 0 0 1 1 1 -0 -0 -0 -0 -1 -1 -1 -1 -1 -1 -2 -1 -1 -1 -1 -1 -1 -1 -1 -1 -1 -1 -1 -2 -1 -1 -1 -1 -0 1
-1 -0 -0 -0 -1 -0 -0 0 0 0 1 1 0 -0 -0 -0 -0 -0 0 -1 -2 -2 -1 -1 -1 -1 -1 -1 -1 -1 -1 -1 -1 -1 -1 -2 -2 -1 -1 -1 0 0 0
-1 -0 -0 -0 -1 -0 0 0 0 1 0 1 1 1 0 0 -0 0 0 -1 -1 -1 -2 -1 -1 -1 -1 -1 -1 -1 -1 -1 -1 -1 -1 -1 -2 -2 -2 -1 0 0 1
-1 -0 -0 -0 -0 0 0 -0 1 1 1 -0 1 1 1 0 -0 0 -0 -0 -0 -1 -1 -1 -1 -1 -1 -1 -1 -1 -1 -1 -2 -2 -1 -1 -1 -2 -2 -1 -0 1 1
-1 -0 -0 -0 -0 0 0 0 0 1 1 -0 2 2 5 3 1 0 0 0 -0 -1 -0 -1 -1 -2 -1 -1 -1 -1 -1 -2 -2 -2 -1 -1 -1 -2 -2 -2 0 1 1
-1 -1 -0 -0 -0 -0 1 0 0 1 2 1 1 2 5 6 3 1 1 0 -0 -0 -0 -1 -1 -1 -1 -1 -1 -1 -1 -1 -2 -2 -1 -1 -1 -0 -0 -0 1 1 1
-1 -1 -1 -0 -0 -0 0 0 -0 1 1 2 1 1 1 2 5 5 1 1 -0 0 -0 -0 -1 -1 -1 -1 -1 -1 -0 -1 -1 -2 -1 -0 0 1 1 1 0 0 1
-1 -1 -1 -1 -0 -0 -1 -0 -0 0 0 1 2 1 2 2 2 4 5 3 1 0 -0 0 -1 -1 -1 -1 -1 -1 -0 -0 -1 -1 -0 0 0 0 1 0 0 0 0
-0 -0 -1 -1 -1 -1 -0 -0 -0 -0 0 0 0 1 2 3 3 3 4 4 4 2 1 0 0 -1 -0 -0 -1 -0 0 0 0 1 1 0 0 1 -0 0 0 0 -0
0 0 -1 -1 -1 -1 -0 -1 -0 -0 -0 1 0 1 0 1 1 1 3 4 4 3 2 0 0 -0 -1 -0 -0 -0 0 1 2 2 2 1 0 -0 -0 -0 -0 -1 -0
0 -1 -1 -1 -0 -0 -0 -1 -0 -0 -0 -0 0 0 0 0 0 0 2 3 5 4 3 3 0 1 -1 -0 0 1 1 2 2 3 2 2 1 1 0 -0 -0 -1 -1
0 -0 -0 -0 -0 -0 -0 -0 -0 0 0 0 0 -0 0 0 0 0 0 1 3 6 5 3 3 1 0 0 1 2 1 1 1 3 3 3 2 2 1 1 1 0 -0
-0 -0 -0 -0 -0 -0 -0 0 0 0 1 1 0 1 1 0 1 0 1 1 1 3 5 2 2 2 1 1 1 1 2 2 3 3 3 3 2 2 2 2 1 0 0
-0 0 -0 0 0 0 0 0 0 1 1 1 1 1 1 1 1 1 1 1 2 2 4 3 2 2 2 2 2 1 1 2 2 3 3 3 3 3 2 2 2 1 0
-0 -0 -0 0 1 1 0 1 1 1 1 2 2 1 1 1 1 1 1 2 2 2 3 4 3 2 3 2 2 2 2 1 2 3 3 3 3 3 3 4 3 2 2
-0 -0 -0 0 1 1 1 1 1 1 1 1 1 2 2 1 2 2 2 2 2 2 2 3 3 3 3 2 3 2 2 2 1 3 4 4 5 5 5 5 4 4 5
0 0 -0 1 0 0 1 1 1 1 1 1 1 1 1 1 2 2 2 2 2 2 2 3 3 3 3 3 3 3 3 3 3 2 4 4 5 6 4 4 4 6 7
0 0 1 1 0 0 1 1 1 1 1 1 1 1 0 1 2 2 1 1 2 2 3 3 3 3 4 3 4 3 4 3 2 2 4 4 3 2 3 5 6 6 6
0 0 1 1 0 1 6 5 4 0 1 1 1 1 0 1 3 5 5 4 2 2 3 3 3 4 3 3 3 3 3 3 3 1 2 0 0 2 3 6 7 7 7
1 1 1 1 1 0 5 6 6 0 1 1 1 1 1 0 1 2 6 6 6 6 4 2 3 3 3 3 3 2 2 2 2 0 0 3 1 4 5 7 7 8 8
0 0 1 1 1 1 7 8 8 0 0 1 0 0 1 1 1 1 1 1 2 2 1 1 2 2 2 1 1 1 0 1 0 0 -1 4 2 4 5 7 8 8 8
1 1 1 1 1 1 8 9 6 0 1 1 1 0 0 1 8 6 1 2 3 4 6 6 7 7 8 5 3 0 2 2 3 2 -0 1 2 3 4 6 7 8 8
1 1 1 1 3 1 9 9 4 1 2 1 1 1 7 2 9 7 1 1 2 3 2 2 2 4 4 3 6 -1 0 2 2 3 0 1 1 2 4 4 6 8 8

GFSMA_con_lsi_024.txt.gz
Lid_Strength_Index
0 0 0 -0 -0 -1 -0 0 0 0 0 -0 -0 -0 0 0 -0 -0 -0 -2 -2 -2 -2 -1 -1 -1 -1 -1 -1 -1 -1 -1 -1 -1 -1 -1 -1 -1 -1 -1 -2 -2 -1
0 0 0 0 0 -0 -0 -0 0 0 0 0 0 0 0 -0 -0 -0 -0 -1 -2 -2 -2 -2 -2 -1 -2 -1 -1 -1 -1 -1 -1 -1 -1 -1 -1 -1 -2 -2 -2 -1 -1
-0 -0 0 0 0 -0 -0 -0 0 -0 1 0 1 0 0 0 0 0 -0 -0 -1 -2 -2 -2 -2 -1 -2 -1 -1 -1 -1 -1 -1 -1 -1 -1 -1 -1 -2 -1 -1 -1 -1
-1 -0 0 0 -0 -0 -0 0 1 1 1 1 1 1 1 0 0 0 -0 -0 -0 -0 -1 -2 -2 -2 -2 -1 -1 -1 -1 -1 -1 -1 -1 -1 -2 -2 -2 -1 -1 -1 0
-0 0 0 0 -0 0 0 1 1 1 1 1 1 1 1 1 0 0 0 -0 -0 -0 -0 -1 -1 -1 -1 -2 -1 -1 -1 -1 -1 -1 -1 -1 -2 -2 -2 -1 -1 -0 0
-0 0 0 0 -0 0 1 1 1 1 1 1 1 1 1 1 0 0 0 0 0 -0 -0 -0 -0 -0 -1 -1 -1 -1 -1 -1 -1 -1 -1 -1 -1 -2 -2 -2 -1 -0 -0
-0 -0 0 0 0 1 1 1 1 2 2 1 2 2 2 1 1 1 1 0 0 0 0 0 -0 -0 -0 -1 -1 -1 -1 -1 -1 -1 -1 -1 -1 -2 -2 -2 -2 -1 -0
-0 0 0 0 0 1 1 1 1 2 2 1 3 3 6 4 2 1 1 1 1 0 0 0 -0 -0 -0 -0 -0 -1 -1 -1 -2 -2 -1 -1 -1 -2 -2 -2 -2 -1 -0
-0 -0 -0 0 0 1 1 1 1 2 3 2 2 3 6 7 4 2 2 1 1 1 0 1 0 0 -0 -0 -0 -0 -1 -1 -2 -2 -2 -1 -2 -2 -2 -2 -1 0 1
-0 -0 -0 0 0 0 1 1 1 1 2 3 2 2 2 3 6 6 3 2 1 1 1 1 0 0 0 0 -0 -1 0 -0 -1 -2 -2 -1 -2 -1 -1 -0 -0 1 1
-0 -0 -0 0 0 0 1 1 1 1 1 2 2 3 3 3 3 4 6 5 2 1 1 1 0 0 0 0 1 1 3 0 -1 -1 -1 -1 -0 0 1 1 0 0 0
0 0 -0 0 0 0 1 1 1 1 1 1 2 2 3 4 4 4 5 5 4 3 1 1 1 1 0 0 -1 1 1 0 1 0 0 -0 -0 0 1 1 -0 -0 0
1 1 0 0 0 0 0 0 1 1 1 2 2 2 2 2 2 3 3 4 5 3 2 1 1 0 1 -0 -0 -0 0 1 1 1 1 1 -0 1 1 0 -0 0 0
1 0 0 -0 0 0 0 0 1 1 1 1 1 1 2 1 1 2 3 4 6 5 3 3 2 1 1 -0 -0 0 1 2 2 2 1 2 1 1 1 0 -0 -0 -0
1 0 -0 0 -0 0 0 1 1 1 1 1 1 1 1 1 1 1 2 2 4 6 6 3 3 1 1 1 1 2 2 2 1 2 2 2 2 2 2 1 1 0 0
1 1 0 0 0 0 0 1 1 1 1 1 1 1 1 1 1 1 1 2 2 4 6 3 2 2 1 1 1 2 2 1 2 2 3 3 3 3 2 2 1 1 1
1 1 1 0 1 1 0 1 1 1 2 1 1 1 2 1 2 1 1 1 2 2 4 3 1 2 2 2 2 2 1 1 2 2 2 3 4 3 3 2 2 2 2
0 1 1 1 1 1 1 1 1 1 2 2 2 2 2 1 2 1 2 2 2 2 3 4 2 2 2 2 3 2 2 1 2 3 3 4 4 4 4 5 5 4 3
1 1 1 1 1 1 1 1 1 1 1 1 2 2 2 2 2 2 2 2 2 2 3 3 3 3 3 2 3 2 3 3 2 3 4 4 5 5 6 6 6 5 4
1 1 1 1 1 1 1 1 1 1 1 1 1 1 1 1 2 2 2 2 3 3 3 3 4 4 4 3 3 4 4 3 3 3 4 5 6 6 7 5 4 6 7
1 1 1 1 1 1 1 1 1 1 2 1 1 1 1 1 2 2 2 3 3 3 3 4 4 4 5 4 5 5 5 4 4 5 7 7 7 5 4 4 5 6 7
1 1 1 1 1 1 7 7 3 1 1 1 2 1 2 2 4 5 5 4 3 3 3 4 4 4 4 5 5 4 4 4 6 4 6 5 3 5 7 7 7 7 7
1 1 1 1 1 1 8 10 8 1 1 1 1 1 1 1 2 3 6 6 6 6 4 3 3 4 4 4 4 5 4 4 5 4 3 5 6 8 8 8 7 8 8
1 1 1 1 1 1 8 10 9 1 1 1 1 1 1 1 2 1 2 2 2 2 2 2 2 3 3 2 3 4 2 3 3 3 3 6 6 8 8 9 7 8 8
2 1 1 1 1 1 8 10 6 1 1 1 1 1 1 1 7 6 2 3 3 3 6 6 7 8 8 6 4 2 3 4 4 3 2 4 5 6 7 8 9 8 8
1 1 1 1 3 1 8 10 5 1 2 2 1 3 6 3 7 7 2 3 3 3 3 3 3 6 5 4 6 1 1 3 3 3 1 3 5 5 7 8 9 10 10

GFSMA_con_lsi_030.txt.gz
Lid_Strength_Index
1 0 2 2 1 2 2 2 2 1 2 1 1 1 1 0 0 1 1 -1 -2 -2 -2 -2 -2 -2 -2 -1 -1 -1 -1 -1 -1 -1 -1 -2 -1 -1 -1 -1 -1 -1 -1
0 2 3 3 1 2 2 2 2 2 1 1 1 1 1 0 0 0 -0 -0 -2 -2 -2 -2 -2 -2 -2 -1 -1 -1 -1 -1 -1 -1 -1 -1 -1 -1 -1 -1 -1 -1 -1
0 2 2 1 2 3 2 2 2 2 2 2 2 1 1 1 1 1 0 -0 -0 -2 -2 -2 -2 -2 -2 -1 -1 -1 -1 -1 -1 -1 -1 -1 -1 -1 -2 -1 -2 -1 -1
1 2 2 2 2 2 2 2 2 2 2 2 2 2 1 1 1 1 0 1 0 0 -1 -2 -2 -2 -1 -2 -2 -1 -1 -1 -1 -1 -1 -1 -1 -2 -2 -2 -1 -1 -1
1 2 2 2 2 2 2 2 3 3 3 3 3 2 2 2 1 1 1 1 0 -0 -0 -1 -2 -2 -2 -2 -2 -1 -1 -1 -1 -1 -1 -1 -1 -2 -2 -1 -1 -1 -1
1 1 2 2 2 2 3 3 3 3 3 3 2 2 2 2 2 2 1 0 1 0 0 0 0 -0 -1 -1 -2 -1 -1 -1 -1 -1 -1 -1 -1 -1 -1 -1 -1 -1 -1
0 1 2 2 2 2 3 3 3 2 3 2 3 3 3 2 2 2 2 2 1 1 1 1 0 0 -0 -1 -1 -1 -1 -1 -1 -1 -1 -1 -1 -1 -1 -1 -1 -1 -1
1 2 2 3 3 3 3 3 3 3 3 2 3 4 6 4 2 2 2 2 2 1 2 1 0 -0 -0 0 0 -1 -1 -1 -1 -1 -1 -1 -1 -1 -1 -1 -2 -1 -1
1 2 2 2 2 2 3 3 3 3 4 3 3 4 6 7 5 4 3 2 2 3 2 1 0 0 0 0 -0 -1 -1 -1 -1 -1 -1 -1 -1 -2 -2 -2 -1 -1 -0
2 1 1 2 2 2 3 3 2 3 4 4 4 2 3 4 6 7 4 3 3 2 2 2 1 1 1 0 -1 -1 0 -1 -1 -1 -1 -1 -2 -2 -2 -2 -2 -2 -1
2 1 2 2 2 3 3 3 3 3 3 4 4 4 4 4 3 5 7 5 4 3 3 2 2 1 1 1 0 0 1 1 0 -0 -1 -1 -1 -2 -2 -1 -1 -1 -1
2 2 2 2 2 2 2 2 2 3 3 3 3 3 4 4 4 4 5 6 5 3 2 1 2 2 1 1 -0 -0 1 1 1 1 0 -1 -1 -1 -2 -2 -0 -0 0
3 3 2 3 2 1 2 2 2 2 2 3 3 3 3 3 4 4 5 5 5 3 3 1 1 0 1 1 0 -0 -0 2 2 2 1 1 -1 -1 -0 -0 -0 -0 -0
3 3 2 2 2 2 2 2 2 2 2 2 3 3 3 3 3 4 5 4 6 5 3 3 1 1 0 1 -0 -0 1 2 2 2 2 1 1 1 0 0 0 -0 -0
3 2 2 2 2 2 1 2 1 1 2 2 2 2 2 2 2 2 3 3 4 7 6 3 4 1 1 1 -0 1 1 2 2 2 2 2 2 2 1 1 1 1 1
2 2 2 2 2 2 1 1 1 1 2 2 2 2 2 2 2 3 3 2 3 4 6 3 3 1 1 0 1 1 2 2 2 3 3 3 3 3 2 2 2 2 2
2 2 2 2 2 2 2 2 2 1 2 2 3 3 3 3 3 2 3 3 4 4 4 3 2 2 2 2 2 2 1 2 2 3 3 3 4 4 4 3 3 3 2
2 2 2 1 1 2 2 2 2 1 2 2 2 3 2 2 2 2 2 2 4 4 3 4 3 3 3 2 2 2 2 1 3 3 3 4 4 4 5 5 4 4 4
2 2 2 2 2 2 1 1 1 1 2 2 2 3 3 2 2 2 2 2 2 2 2 3 3 2 3 3 3 3 3 3 2 3 4 4 4 5 5 5 6 6 6
1 1 2 1 1 2 1 1 1 2 2 1 2 2 2 2 2 2 2 2 2 2 2 3 3 3 3 3 3 4 4 3 4 4 5 5 6 6 6 6 6 6 7
1 1 2 2 2 3 4 4 1 2 3 3 2 1 2 2 3 3 2 2 2 3 3 3 3 3 4 4 4 4 5 6 6 6 7 7 8 8 8 6 5 5 6
1 2 2 3 3 3 10 8 4 2 2 2 2 2 3 4 5 6 5 5 3 3 3 3 3 4 4 4 4 5 6 6 8 6 8 9 9 10 10 8 6 7 7
2 2 4 4 4 5 11 9 6 2 2 1 2 2 3 3 4 4 6 6 7 7 4 3 3 4 5 4 4 5 5 6 7 7 8 11 11 11 9 7 7 7 7
2 3 4 4 4 5 11 9 7 2 2 1 2 2 3 3 3 3 3 3 3 3 3 3 4 4 4 3 4 4 5 7 7 8 8 10 10 10 10 10 7 8 8
3 4 4 5 4 5 11 9 4 3 2 2 1 1 2 3 9 8 3 3 4 5 8 9 9 9 9 8 5 5 6 7 8 7 5 8 9 10 11 11 10 8 10
2 2 4 4 5 5 11 9 4 2 2 2 2 3 7 5 10 8 3 3 4 4 4 4 5 7 6 7 6 5 4 5 6 6 5 7 9 10 11 10 12 11 12